TimeEDT,TemperatureF,Dew PointF,Humidity,Sea Level PressureIn,VisibilityMPH,Wind Direction,Wind SpeedMPH,Gust SpeedMPH,PrecipitationIn,Events,Conditions,WindDirDegrees,DateUTC
12:15 AM,69.8,68.0,94,29.85,10.0,SW,13.8,-,N/A,,Overcast,220,2013-08-23 04:15:00
12:35 AM,69.8,68.0,94,29.84,10.0,SW,13.8,-,N/A,,Overcast,220,2013-08-23 04:35:00
12:55 AM,69.8,66.2,88,29.84,10.0,SW,10.4,-,N/A,,Overcast,230,2013-08-23 04:55:00
1:15 AM,69.8,66.2,88,29.84,10.0,SW,11.5,-,N/A,,Overcast,220,2013-08-23 05:15:00
1:35 AM,69.8,66.2,88,29.84,10.0,SW,10.4,-,N/A,,Scattered Clouds,230,2013-08-23 05:35:00
1:55 AM,68.0,66.2,94,29.83,10.0,SW,10.4,-,N/A,,Clear,230,2013-08-23 05:55:00
2:15 AM,68.0,66.2,94,29.83,10.0,SW,9.2,-,N/A,,Clear,230,2013-08-23 06:15:00
2:35 AM,68.0,66.2,94,29.83,10.0,SW,9.2,-,N/A,,Clear,220,2013-08-23 06:35:00
2:55 AM,68.0,66.2,94,29.83,10.0,SW,8.1,-,N/A,,Clear,230,2013-08-23 06:55:00
3:15 AM,68.0,66.2,94,29.83,10.0,SW,8.1,-,N/A,,Clear,230,2013-08-23 07:15:00
3:35 AM,68.0,66.2,94,29.83,9.0,WSW,6.9,-,N/A,,Clear,240,2013-08-23 07:35:00
3:55 AM,68.0,66.2,94,29.82,9.0,WSW,6.9,-,N/A,,Partly Cloudy,250,2013-08-23 07:55:00
4:15 AM,68.0,66.2,94,29.82,9.0,West,6.9,-,N/A,,Clear,260,2013-08-23 08:15:00
4:35 AM,68.0,66.2,94,29.82,8.0,West,8.1,-,N/A,,Clear,260,2013-08-23 08:35:00
4:55 AM,69.8,66.2,88,29.83,9.0,West,9.2,-,N/A,,Clear,260,2013-08-23 08:55:00
5:15 AM,69.8,66.2,88,29.84,8.0,West,8.1,-,N/A,,Clear,270,2013-08-23 09:15:00
5:35 AM,69.8,66.2,88,29.84,9.0,West,8.1,-,N/A,,Partly Cloudy,280,2013-08-23 09:35:00
5:55 AM,68.0,66.2,94,29.84,10.0,WNW,8.1,-,N/A,,Clear,290,2013-08-23 09:55:00
6:15 AM,68.0,66.2,94,29.85,10.0,NW,6.9,-,N/A,,Scattered Clouds,310,2013-08-23 10:15:00
7:55 AM,68.0,64.4,88,29.90,10.0,NNW,9.2,-,N/A,,Partly Cloudy,340,2013-08-23 11:55:00
8:15 AM,69.8,64.4,83,29.90,10.0,North,12.7,-,N/A,,Partly Cloudy,350,2013-08-23 12:15:00
8:35 AM,69.8,62.6,78,29.91,10.0,North,12.7,-,N/A,,Mostly Cloudy,350,2013-08-23 12:35:00
8:55 AM,69.8,62.6,78,29.91,10.0,North,11.5,17.3,N/A,,Scattered Clouds,350,2013-08-23 12:55:00
9:15 AM,69.8,64.4,83,29.92,10.0,North,11.5,18.4,N/A,,Clear,350,2013-08-23 13:15:00
9:35 AM,69.8,62.6,78,29.93,10.0,North,11.5,16.1,N/A,,Scattered Clouds,360,2013-08-23 13:35:00
9:55 AM,69.8,60.8,73,29.94,10.0,North,13.8,19.6,N/A,,Scattered Clouds,10,2013-08-23 13:55:00
10:15 AM,69.8,60.8,73,29.94,10.0,North,12.7,20.7,N/A,,Clear,10,2013-08-23 14:15:00
10:35 AM,68.0,60.8,78,29.95,10.0,North,12.7,19.6,N/A,,Clear,10,2013-08-23 14:35:00
10:55 AM,69.8,60.8,73,29.95,10.0,North,12.7,19.6,N/A,,Clear,10,2013-08-23 14:55:00
11:15 AM,69.8,60.8,73,29.95,10.0,NNE,12.7,-,N/A,,Clear,20,2013-08-23 15:15:00
11:35 AM,68.0,60.8,78,29.96,10.0,NNE,12.7,-,N/A,,Clear,20,2013-08-23 15:35:00
11:55 AM,68.0,60.8,78,29.96,10.0,NNE,12.7,-,N/A,,Clear,20,2013-08-23 15:55:00
12:15 PM,68.0,60.8,78,29.96,10.0,NNE,11.5,-,N/A,,Clear,20,2013-08-23 16:15:00
12:35 PM,69.8,60.8,73,29.96,10.0,North,12.7,-,N/A,,Clear,10,2013-08-23 16:35:00
12:55 PM,71.6,62.6,73,29.97,10.0,NNE,11.5,16.1,N/A,,Clear,20,2013-08-23 16:55:00
1:15 PM,69.8,60.8,73,29.97,10.0,NNE,9.2,-,N/A,,Clear,20,2013-08-23 17:15:00
1:35 PM,71.6,60.8,69,29.97,10.0,North,9.2,-,N/A,,Clear,10,2013-08-23 17:35:00
1:55 PM,71.6,60.8,69,29.98,10.0,NNE,10.4,-,N/A,,Clear,20,2013-08-23 17:55:00
2:15 PM,71.6,60.8,69,29.98,10.0,NNE,9.2,-,N/A,,Clear,20,2013-08-23 18:15:00
2:35 PM,69.8,60.8,73,29.99,10.0,NNE,8.1,-,N/A,,Clear,30,2013-08-23 18:35:00
2:55 PM,71.6,60.8,69,29.99,10.0,NNE,11.5,-,N/A,,Clear,20,2013-08-23 18:55:00
3:15 PM,71.6,60.8,69,29.99,10.0,NNE,12.7,-,N/A,,Clear,30,2013-08-23 19:15:00
3:35 PM,71.6,59.0,64,29.99,10.0,NE,11.5,-,N/A,,Clear,50,2013-08-23 19:35:00
3:55 PM,71.6,57.2,60,29.99,10.0,NE,9.2,-,N/A,,Clear,50,2013-08-23 19:55:00
4:15 PM,71.6,57.2,60,29.99,10.0,ENE,10.4,-,N/A,,Clear,60,2013-08-23 20:15:00
4:35 PM,71.6,57.2,60,29.99,10.0,ENE,8.1,-,N/A,,Clear,60,2013-08-23 20:35:00
4:55 PM,71.6,57.2,60,29.99,10.0,ENE,9.2,-,N/A,,Clear,70,2013-08-23 20:55:00
5:15 PM,71.6,57.2,60,30.00,10.0,ENE,10.4,-,N/A,,Clear,70,2013-08-23 21:15:00
5:35 PM,69.8,57.2,64,30.00,10.0,ENE,6.9,-,N/A,,Clear,70,2013-08-23 21:35:00
5:55 PM,69.8,57.2,64,30.01,10.0,East,9.2,-,N/A,,Clear,80,2013-08-23 21:55:00
6:15 PM,68.0,57.2,68,30.00,10.0,East,6.9,-,N/A,,Clear,80,2013-08-23 22:15:00
6:35 PM,69.8,59.0,68,30.01,10.0,East,6.9,-,N/A,,Clear,90,2013-08-23 22:35:00
6:55 PM,68.0,57.2,68,30.01,10.0,East,6.9,-,N/A,,Clear,80,2013-08-23 22:55:00
7:15 PM,66.2,57.2,73,30.01,10.0,East,4.6,-,N/A,,Clear,80,2013-08-23 23:15:00
7:35 PM,64.4,57.2,77,30.02,10.0,East,3.5,-,N/A,,Clear,80,2013-08-23 23:35:00
7:55 PM,62.6,57.2,82,30.03,10.0,Calm,Calm,-,N/A,,Clear,0,2013-08-23 23:55:00
8:15 PM,62.6,59.0,88,30.04,10.0,NNW,4.6,-,N/A,,Clear,340,2013-08-24 00:15:00
8:35 PM,60.8,57.2,88,30.05,10.0,Calm,Calm,-,N/A,,Clear,0,2013-08-24 00:35:00
8:55 PM,62.6,59.0,88,30.06,10.0,Calm,Calm,-,N/A,,Clear,0,2013-08-24 00:55:00
9:15 PM,60.8,57.2,88,30.07,10.0,Calm,Calm,-,N/A,,Clear,0,2013-08-24 01:15:00
9:35 PM,60.8,57.2,88,30.07,10.0,Calm,Calm,-,N/A,,Clear,0,2013-08-24 01:35:00
9:55 PM,60.8,57.2,88,30.08,10.0,Calm,Calm,-,N/A,,Clear,0,2013-08-24 01:55:00
10:15 PM,62.6,59.0,88,30.08,10.0,NW,4.6,-,N/A,,Clear,320,2013-08-24 02:15:00
10:35 PM,62.6,60.8,94,30.09,10.0,NW,3.5,-,N/A,,Clear,320,2013-08-24 02:35:00
10:55 PM,60.8,57.2,88,30.09,10.0,Calm,Calm,-,N/A,,Clear,0,2013-08-24 02:55:00
11:15 PM,59.0,55.4,88,30.10,10.0,Calm,Calm,-,N/A,,Clear,0,2013-08-24 03:15:00
11:35 PM,57.2,55.4,94,30.10,10.0,Calm,Calm,-,N/A,,Clear,0,2013-08-24 03:35:00
11:55 PM,59.0,55.4,88,30.10,10.0,North,6.9,-,N/A,,Clear,350,2013-08-24 03:55:00